Starlink 5421

operational
NORAD ID: 54799 Int'l Des: 2022-175 Owner: SPXS Country: US Constellation: starlink
LEOCIRCULAR

About Starlink 5421

Description loading...

Live Position

Loading 3D Globe...

Upcoming Passes

Altitude History

Altitude vs Time

uPlot chart will show altitude changes over time

Two-Line Element Set

1 54799U 22175AT 25306.06457137 -.00002998 00000-0 -17049-3 0 9994
2 54799 53.2174 232.0159 0001658 92.9991 267.1191 15.08812202161003
Epoch: Nov 2, 2025 • Age: 21 hours

Current Status

Altitude 545.2 km
Velocity 7.60 km/s
Sub-Earth Point 53.13°N, 56.39°W
Launch Date Dec 17, 2022
Age 2.8 years
Type internet

Technical Details

Classification Payload
Mass 305.00 kg
Dry Mass 290.00 kg
Total Mass 305.00 kg
Length 0.20 m
Diameter 2.80 m
Span 9.00 m
Shape Box + pan
Manufacturer SPXS
Bus Type Starlink
Phase Status In Orbit
Owner/State SPXS/US

Large Constellations

Loading constellations...